This is the latest recevied weather packets stored in our database for station/object K8GLX. If no packets are shown the sender has not sent any weather packets the latest 10 day(s).
| Time | Temp. | Humidity | Pressure | Rain* | Wind** | Luminosity | Snow |
|---|---|---|---|---|---|---|---|
| 1777592539 | 10.56° C | 57% | 1014.1 hPa | 0 mm | - | 29 W/m² | - |
| 1777592233 | 10.56° C | 57% | 1014 hPa | 0 mm | - | 30 W/m² | - |
| 1777591938 | 10.56° C | 56% | 1013.8 hPa | 0 mm | - | 32 W/m² | - |
| 1777591632 | 10.56° C | 56% | 1014 hPa | 0 mm | - | 33 W/m² | - |
| 1777591338 | 10.56° C | 59% | 1014 hPa | 0 mm | - | 36 W/m² | - |
| 1777591032 | 10.56° C | 58% | 1014.1 hPa | 0 mm | - | 37 W/m² | - |
| 1777590738 | 10° C | 57% | 1013.9 hPa | 0 mm | - | 38 W/m² | - |
| 1777590552 | 10° C | 58% | 1014.2 hPa | 0 mm | - | 40 W/m² | - |
| 1777590266 | 10.56° C | 57% | 1014.1 hPa | 0 mm | - | 43 W/m² | - |
| 1777589832 | 10.56° C | 57% | 1014 hPa | 0 mm | - | 44 W/m² | - |
| 1777589666 | 10.56° C | 55% | 1013.9 hPa | 0 mm | - | 55 W/m² | - |
| 1777589232 | 10.56° C | 57% | 1013.9 hPa | 0 mm | - | 55 W/m² | - |
| 1777588938 | 10.56° C | 55% | 1014 hPa | 0 mm | - | 47 W/m² | - |
| 1777588632 | 11.11° C | 55% | 1014.2 hPa | 0 mm | - | 130 W/m² | - |
| 1777588338 | 10.56° C | 52% | 1013.9 hPa | 0 mm | - | 152 W/m² | - |
| 1777588032 | 10.56° C | 52% | 1014.3 hPa | 0 mm | - | 169 W/m² | - |
| 1777587739 | 10.56° C | 55% | 1014.2 hPa | 0 mm | - | 184 W/m² | - |
| 1777587433 | 10.56° C | 56% | 1014.1 hPa | 0 mm | - | 195 W/m² | - |
| 1777587138 | 10.56° C | 57% | 1014.1 hPa | 0 mm | - | 209 W/m² | - |
| 1777586832 | 10.56° C | 55% | 1014 hPa | 0 mm | - | 225 W/m² | - |
| 1777586666 | 10.56° C | 54% | 1014.2 hPa | 0 mm | - | 241 W/m² | - |
| 1777586232 | 10.56° C | 55% | 1014.1 hPa | 0 mm | - | 255 W/m² | - |
| 1777586164 | 10.56° C | 57% | 1014.3 hPa | 0 mm | - | 270 W/m² | - |
| 1777585752 | 10.56° C | 56% | 1014 hPa | 0 mm | - | 284 W/m² | - |
| 1777585466 | 10° C | 56% | 1014.1 hPa | 0 mm | - | 297 W/m² | - |
* Rain latest hour (hover to see other rain measurements)
** Current wind speed in m/s (hover to see current wind gust speed)